Regional Weather Roundup
Issued by NWS

Home | Current Version | Previous Version | Text Only | Print | Product List | Glossary Off
Versions: 1 2 3 4 5 6 7 8 9 10 11 12 13 14 15 16 17 18 19 20 21 22 23 24 25 26 27 28 29 30 31 32 33 34 35 36 37 38 39 40 41 42 43 44 45 46 47 48 49 50

000
ASUS43 KMKX 180400
RWRWI

WISCONSIN REGIONAL WEATHER ROUNDUP
NATIONAL WEATHER SERVICE MILWAUKEE/SULLIVAN WI
1100 PM CDT THU APR 17 2014

NOTE: "FAIR" INDICATES FEW OR NO CLOUDS BELOW 12,000 FEET WITH NO
SIGNIFICANT WEATHER AND/OR OBSTRUCTIONS TO VISIBILITY.

WIZ001-002-006>008-014>016-023>028-180500-
NORTHWEST WISCONSIN

CITY           SKY/WX    TMP DP  RH WIND       PRES   REMARKS
SUPERIOR ARPT  CLEAR     28  22  80 N3        30.32S
ASHLAND        PTCLDY    29  26  89 CALM      30.32S
HAYWARD        FOG       25  22  88 CALM      30.30S VSB 1/4
SIREN          CLEAR     27  25  94 CALM      30.32S
RICE LAKE      CLEAR     28  25  89 CALM      30.32S
LADYSMITH      CLOUDY    34  28  80 CALM      30.32R
EAU CLAIRE     NOT AVBL
MENOMONIE      CLEAR     32  28  85 CALM      30.32S
NEW RICHMOND   CLEAR     29  28  96 CALM      30.31F
OSCEOLA        CLEAR     28  25  90 CALM      30.34S
$$

WIZ003>005-009-010-017-018-180500-
NORTH CENTRAL WISCONSIN

CITY           SKY/WX    TMP DP  RH WIND       PRES   REMARKS
WOODRUFF       CLOUDY    33  29  86 CALM      30.26S
RHINELANDER    CLOUDY    32  25  75 W3        30.27R
EAGLE RIVER    CLOUDY    32  24  73 NW7       30.25S WCI  26
LAND O LAKES   CLOUDY    32  26  78 NW3       30.26S
PHILLIPS       CLOUDY    32  26  80 CALM      30.28R
TOMAHAWK       CLOUDY    32  26  78 CALM      30.28S
MEDFORD        CLOUDY    32  26  79 NW6       30.29R WCI  26
MERRILL        CLOUDY    33  27  79 CALM      30.28S
$$

WIZ029-030-035-036-043>047-180500-
CENTRAL WISCONSIN

CITY           SKY/WX    TMP DP  RH WIND       PRES   REMARKS
WAUSAU         CLOUDY    34  27  75 N7        30.27S WCI  28
MOSINEE        CLOUDY    34  30  86 NW8       30.29S WCI  27
MARSHFIELD     CLOUDY    34  27  75 NW9       30.29R WCI  27
STEVENS POINT  CLOUDY    34  27  75 NW5       30.29S WCI  30
WAUPACA        CLOUDY    39  30  70 N7        30.29S WCI  34
WAUTOMA        NOT AVBL
WISC RAPIDS    CLOUDY    37  28  70 NW7       30.31R WCI  32
CAMP DOUGLAS   NOT AVBL
$$

WIZ011>013-019>022-031-037>040-048>050-180500-
NORTHEAST WISCONSIN

CITY           SKY/WX    TMP DP  RH WIND       PRES   REMARKS
ANTIGO         CLOUDY    32  27  83 NW7       30.27S WCI  26
STURGEON BAY   CLOUDY    37  32  81 CALM      30.27S
GREEN BAY      MOCLDY    38  34  85 W6        30.28R WCI  33
MANITOWOC      NOT AVBL
APPLETON       MOCLDY    36  30  80 W5        30.28R WCI  32
CLINTONVILLE   CLOUDY    37  32  81 NW8       30.28R WCI  31
OSHKOSH        CLEAR     37  30  75 NW5       30.27S WCI  33
$$

WIZ032>034-041-042-053>061-180500-
SOUTHWEST WISCONSIN

CITY           SKY/WX    TMP DP  RH WIND       PRES   REMARKS
LA CROSSE      CLOUDY    38  28  67 N5        30.32S WCI  34
SPARTA         CLOUDY    38  29  70 N3        30.32S
VIROQUA        CLOUDY    36  31  81 NE6       30.28S WCI  31
BOSCOBEL       CLEAR     37  30  75 NW3       30.32R
PRAIRIE DU CHI CLEAR     36  30  79 CALM      30.32R
PLATTEVILLE    FAIR      38  32  79 NW7       30.29R WCI  33
$$

WIZ056-057-062-063-064-067-068-180500-
SOUTH CENTRAL WISCONSIN

CITY           SKY/WX    TMP DP  RH WIND       PRES   REMARKS
BARABOO/DELLS  CLEAR     34  30  85 CALM      30.29R
LONE ROCK      NOT AVBL
WATERTOWN      PTCLDY    39  34  81 N8        30.27R WCI  33
MADISON        PTCLDY    37  32  82 N5        30.29S WCI  33
MIDDLETON      FAIR      38  33  81 N3        30.28S
MONROE         PTCLDY    41  39  93 N9        30.25S
JANESVILLE     MOCLDY    45  34  65 N10G16    30.25R
$$

WIZ051-052-058>065-066-070>072-180500-
SOUTHEAST WISCONSIN

CITY           SKY/WX    TMP DP  RH WIND       PRES   REMARKS
MILWAUKEE      MOCLDY    49  37  63 NW7       30.26R
WAUKESHA       MOCLDY    41  36  81 NW7       30.26S
MILWAUKEE/TIMM MOCLDY    45  34  65 NW7       30.26R
RACINE         MOCLDY    42  36  79 S3        30.26S
BURLINGTON     MOCLDY    43  37  81 N3        30.24S
KENOSHA        MOCLDY    42  36  79 S3        30.24S
FOND DU LAC    CLEAR     38  32  79 N3        30.28R
SHEBOYGAN      MOCLDY    41  35  79 NW5       30.26S
WEST BEND      CLOUDY    41  32  70 NW9       30.25F
JUNEAU         CLOUDY    37  32  82 NW5       30.28S WCI  34
$$

LSZ147-162-180500-
LAKE SUPERIOR

STATION/POSITION TIME  TEMP    WIND        PRES    WAVE
                       AIR SEA DIR/SP/G            HT/PER
                 (UTC) (F)     (DEG/KT/KT) (MB)    (FT/S)
DEVILS ISLAND    0300   34     290/ 10/ 11 1027.2R
PORT WING        0300   34     350/  6/  8 1026.4
SAXON HARBOR     0300          200/  2/  3 1026.1R
$$

LMZ867-665-643>646-180500-
LAKE MICHIGAN

STATION/POSITION TIME  TEMP    WIND        PRES    WAVE
                       AIR SEA DIR/SP/G            HT/PER
                 (UTC) (F)     (DEG/KT/KT) (MB)    (FT/S)
NORTHPORT PIER   0300   36     320/  2/  2 1024.4S
SISTER BAY       0323   36        CALM       N/A
KEWAUNEE LAKESHO 0300   39      20/  4/  5 1025.1R
SHEBOYGAN LAKESH 0300   43     340/  8/ 10 1025.3R
PORT WASHINGTON  0300   47     320/  8/ 14 1025.1
MILWAUKEE LAKESH 0300   48     300/  2/  6   N/A
KENOSHA   LAKESH 0300   44     180/  5/  6   N/A
$$

TC  - TEMPERATURE IN CELSIUS
VSB - VISIBILITY IN STATUTE MILES
WCI - WIND CHILL INDEX
HX  - HEAT INDEX




USA.gov is the U.S. government's official web portal to all federal, state and local government web resources and services.